Regional Weather Roundup
Issued by NWS Cleveland, OH

Home | Current Version | Previous Version | Text Only | Print | Product List | Glossary Off
Versions: 1 2 3 4 5 6 7 8 9 10 11 12 13 14 15 16 17 18 19 20 21 22 23 24 25 26 27 28 29 30 31 32 33 34 35 36 37 38 39 40 41 42 43 44 45 46 47 48 49 50

000
ASUS41 KCLE 230910
RWRCLE
OHIO REGIONAL WEATHER ROUNDUP
NATIONAL WEATHER SERVICE CLEVELAND, OH
500 AM EDT SAT AUG 23 2014

NOTE: "FAIR" INDICATES FEW OR NO CLOUDS BELOW 12,000 FEET WITH NO
SIGNIFICANT WEATHER AND/OR OBSTRUCTIONS TO VISIBILITY.

OHZ001>008-015>018-024>027-034-035-043-044-231000-
   NORTHWEST OHIO

CITY           SKY/WX    TMP DP  RH WIND       PRES   REMARKS
DEFIANCE       PTCLDY    71  68  90 NE5       29.99S FOG
FINDLAY        CLEAR     70  68  93 NE6       29.99S FOG
TOLEDO EXPRESS MOCLDY    69  67  93 NE5       30.00R
TOLEDO EXEC    CLOUDY    71  66  84 NE5       30.01R
LIMA           MOCLDY    71  68  90 CALM      29.99S FOG
$$

OHZ009>014-019>023-028>033-038-089-231000-
   NORTHEAST OHIO

CITY           SKY/WX    TMP DP  RH WIND       PRES   REMARKS
CLE-HOPKINS    CLOUDY    71  69  93 N7        30.00S
CLE-LAKEFRONT  CLEAR     71  67  87 NE7       29.98R
CUY CO. ARPT   NOT AVBL
LORAIN-ELYRIA  CLOUDY    72  68  87 N5        30.00R FOG
ASHTABULA      FOG       67  66  97 VRB3      30.00R VSB 1/4
AKRON-CANTON   PTCLDY    67  65  93 N7        29.99R FOG
WOOSTER        CLEAR     65  63  93 CALM      30.00R FOG
MANSFIELD      MOCLDY    65  65 100 CALM      30.01R FOG
YOUNGSTOWN     PTCLDY    66  64  93 NE7       29.99R FOG
$$

OHZ042-051>053-060>062-070>072-077>081-231000-
  SOUTHWEST OHIO

CITY           SKY/WX    TMP DP  RH WIND       PRES   REMARKS
CINC-COVINGTON FOG       72  70  94 CALM      29.99S VSB 3/4
CINC-LUNKEN    FOG       70  70 100 CALM      29.98S VSB 1/4
HAMILTON       CLOUDY    70  69  97 CALM      29.98F FOG
DAYTON         PTCLDY    73  71  93 CALM      29.99F
WRIGHT-PAT AFB CLEAR     70  70 100 N2        29.98S FOG
DAYTON GENERAL FOG       70  70 100 NE3       29.98S VSB 3/4
WILMINGTON     FOG       68  67  96 CALM      29.99S VSB 3/4
$$

OHZ036-037-039>041-045>050-054>059-063>069-073>076-082>088-231000-
  CENTRAL AND SOUTHEAST OHIO

CITY           SKY/WX    TMP DP  RH WIND       PRES   REMARKS
COLUMBUS       CLEAR     73  70  88 CALM      29.98R FOG
OSU AIRPORT    FOG       71  70  96 NW3       29.99R VSB 1/4
BOLTON FIELD   FOG       70  70 100 NW3       29.99S VSB 1/4
RICKENBACK AFB FOG       69  65  88 CALM      29.98R VSB 1/4
NEWARK         CLOUDY    68  67  96 CALM      29.98R FOG
MARION         FOG       67  66  97 N3        29.99F VSB 3/4
LANCASTER      FOG       68  66  93 CALM      29.98S VSB 1/4
ZANESVILLE     FOG       69  68  96 CALM      29.97S VSB 1/4
NEW PHILLY     CLOUDY    70  70 100 N3        29.98R FOG
$$



USA.gov is the U.S. government's official web portal to all federal, state and local government web resources and services.